Skip Page Navigation
NASA JPL Caltech
NASA Logo - Jet Propulsion Laboratory + View the NASA Portal
+ Center for Near-Earth Object Studies
JPL Home Earth Solar System Stars & Galaxies Technology
JPL Solar System Dynamics
BODIES ORBITS EPHEMERIDES TOOLS PHYSICAL DATA DISCOVERY FAQ SITE MAP
JPL Small-Body Database Browser
Search: [ help ]  
(2005 VX3)
Classification: TransNeptunian Object          SPK-ID: 3299811
Ephemeris | Orbit Diagram | Orbital Elements | Physical Parameters ]

[ show orbit diagram ]
Orbital Elements at Epoch 2459000.5 (2020-May-31.0) TDB
Reference: JPL 3 (heliocentric ecliptic J2000)
 Element Value Uncertainty (1-sigma)   Units 
e .9949713423725556 0.00080678  
a 815.3001066822123 130.87 au
q 4.099865100123758 0.00034476 au
i 112.2580503174492 0.0076444 deg
node 255.3292830404079 0.0017398 deg
peri 196.2905777458006 0.010465 deg
M .2226212046276812 0.053601 deg
tp 2453742.280598609575
(2006-Jan-06.78059861)
0.060984 TDB
period 8503048.879222436
23280.08
2.0474e+06
5605
d
yr
n 4.233775497629743E-5 1.0194e-05 deg/d
Q 1626.500348264301 261.09 au
  Orbit Determination Parameters
   # obs. used (total)      50  
   data-arc span      81 days  
   first obs. used      2005-11-01  
   last obs. used      2006-01-21  
   planetary ephem.      DE431  
   SB-pert. ephem.      SB431-N16  
   condition code      4  
   norm. resid. RMS      .7133  
   source      ORB  
   producer      Otto Matic  
   solution date      2017-Apr-08 18:43:57  

Additional Information
 Earth MOID = 3.14349 au 
 Jupiter MOID = .896119 au 
 T_jup = -0.943 
[ hide covariance matrix ]
Orbital Elements at Epoch 2453687.5 (2005-Nov-13.0) TDB
Reference: JPL 3 (heliocentric ecliptic J2000)
 Element Value Uncertainty (1-sigma)   Units 
e .9975122675262945 0.0008105  
q 4.115220106701545 0.0003789 au
tp 2453745.818420406412
(2006-Jan-10.31842041)
0.068558 TDB
node 255.2642014453776 0.0015496 deg
peri 196.4472695507446 0.010426 deg
i 112.4169316348546 0.0076431 deg
  Orbit Determination Parameters
   # obs. used (total)      50  
   data-arc span      81 days  
   first obs. used      2005-11-01  
   last obs. used      2006-01-21  
   planetary ephem.      DE431  
   SB-pert. ephem.      SB431-N16  
   condition code      4  
   norm. resid. RMS      .7133  
   source      ORB  
   producer      Otto Matic  
   solution date      2017-Apr-08 18:43:57  

Additional Information
 Jupiter MOID = .896119 au 
 T_jup = -0.943 
Orbit Covariance (6×6)
  e q tp node peri i
e 6.569147242423804E-7 3.063164645544212E-7 -4.526364958778693E-5 1.254585929485927E-6 -6.526404479227379E-6 6.188124162340118E-6
q 3.063164645544212E-7 1.435626308903238E-7 -2.211652900117173E-5 5.842819837409374E-7 -3.211651746449439E-6 2.887452708692334E-6
tp -4.526364958778693E-5 -2.211652900117173E-5 .004700145723178751 -8.474536014190732E-5 .0007130533655977816 -.0004267525671356795
node 1.254585929485927E-6 5.842819837409374E-7 -8.474536014190732E-5 2.401387172358037E-6 -1.218106485164628E-5 1.183702824753906E-5
peri -6.526404479227379E-6 -3.211651746449439E-6 .0007130533655977816 -1.218106485164628E-5 .0001087019355483237 -6.153899127717632E-5
i 6.188124162340118E-6 2.887452708692334E-6 -.0004267525671356795 1.183702824753906E-5 -6.153899127717632E-5 5.841681806259127E-5

Ephemeris | Orbit Diagram | Orbital Elements | Physical Parameters ]

Physical Parameter Table
Parameter Symbol Value Units Sigma Reference Notes
absolute magnitude H 14.1   n/a MPO97960  
Ephemeris | Orbit Diagram | Orbital Elements | Physical Parameters ]
ABOUT SSD CREDITS/AWARDS PRIVACY/COPYRIGHT GLOSSARY LINKS
FirstGov 2020-Jul-04 07:02 UT
(server date/time)  
NASA Home Page
Site Manager:   Ryan S. Park
Webmaster  Alan B. Chamberlin